Regional Weather Roundup
Issued by NWS

Home | Current Version | Previous Version | Text Only | Print | Product List | Glossary Off
Versions: 1 2 3 4 5 6 7 8 9 10 11 12 13 14 15 16 17 18 19 20 21 22 23 24 25 26 27 28 29 30 31 32 33 34 35 36 37 38 39 40 41 42 43 44 45 46 47 48 49 50

000
ASUS43 KLMK 230810
RWRKY
KENTUCKY REGIONAL WEATHER ROUNDUP
NATIONAL WEATHER SERVICE LOUISVILLE KY
400 AM EDT SUN APR 23 2017

NOTE "FAIR" INDICATES FEW OR NO CLOUDS BELOW 12,000 FEET
WITH NO SIGNIFICANT WEATHER AND/OR OBSTRUCTIONS TO VISIBILITY.

KYZ001>023-026-027-061>063-070>075-230900-
WESTERN AND SOUTH CENTRAL KENTUCKY

CITY           SKY/WX    TMP DP  RH WIND       PRES   REMARKS
PADUCAH        CLOUDY    52  40  63 N10       29.93F
HENDERSON      CLOUDY    50  39  66 NE12      29.96F
OWENSBORO      CLOUDY    51  38  60 NE12G18   29.95F
HOPKINSVILLE   CLOUDY    51  44  78 NE16      29.87F
BOWLING GREEN  CLOUDY    51  46  83 NE12      29.90F
GLASGOW        DRIZZLE   49  44  84 NE12G21   29.88F
$$

KYZ024-025-028>034-038-045-046-053-230900-
NORTH CENTRAL KENTUCKY

CITY           SKY/WX    TMP DP  RH WIND       PRES   REMARKS
LOUISVILLE/SDF CLOUDY    49  39  68 NE9       29.97F
LOUISVILLE/LOU CLOUDY    49  37  63 NE8       29.98F
FORT KNOX      CLOUDY    47  39  74 NE7       29.94S
$$

KYZ035>037-039>044-047>052-055>060-089>105-230900-
NORTHEAST KENTUCKY

CITY           SKY/WX    TMP DP  RH WIND       PRES   REMARKS
LEXINGTON      CLOUDY    47  39  74 NE13      29.97F
COVINGTON      CLOUDY    45  35  68 NE15      30.02F
FRANKFORT      MOCLDY    47  37  68 NE7       29.97F
$$

KYZ054-064>069-076>088-106>120-230900-
SOUTHEAST KENTUCKY

CITY           SKY/WX    TMP DP  RH WIND       PRES   REMARKS
JACKSON        CLOUDY    47  43  86 VRB3      29.95F
LONDON         CLOUDY    48  45  89 E8        29.92F
SOMERSET       CLOUDY    46  46 100 E10       29.92F
MIDDLESBORO    CLOUDY    52  50  95 CALM      29.90S
MONTICELLO     LGT RAIN  48  47  96 N10G16    29.91F
$$





USA.gov is the U.S. government's official web portal to all federal, state and local government web resources and services.